Regional Weather Roundup
Issued by NWS Lake Charles, LA

Home | Current Version | Previous Version | Text Only | Print | Product List | Glossary On
Versions: 1 2 3 4 5 6 7 8 9 10 11 12 13 14 15 16 17 18 19 20 21 22 23 24 25 26 27
000
ASUS44 KLCH 220610
RWRLCH
REGIONAL WEATHER ROUNDUP
NATIONAL WEATHER SERVICE LAKE CHARLES LA
1200 AM CST WED NOV 22 2017

Note: "fair" indicates few or no clouds below 12,000 feet with no
significant weather and/or obstructions to visibility.


ACROSS SOUTHEAST TEXAS

CITY           SKY/WX    TMP DP  RH WIND       PRES   REMARKS
BEAUMONT       CLOUDY    57  54  89 N14       30.05S
BEAUMONT CITY  CLOUDY    58  55  87 N9        30.07R
ORANGE         CLOUDY    58  56  93 N5        30.07S
JASPER         LGT RAIN  58  56  93 N5        30.11F
$$

ACROSS CENTRAL LOUISIANA

CITY           SKY/WX    TMP DP  RH WIND       PRES   REMARKS
LEESVILLE      CLOUDY    55  52  89 N7        30.08S
FULLERTON      MOCLDY    54  53  97 CALM      30.07R
ALEXANDRIA INT CLOUDY    54  53  97 N6        30.09S
ESLER FIELD    CLOUDY    53  53 100 CALM      30.10S
DERIDDER       FAIR      54  53  95 CALM      30.10S
OAKDALE        DRIZZLE   55  53  90 CALM      30.08S
OPELOUSAS      CLOUDY    55  53  91 NE8       30.06S
$$

ACROSS SOUTHWEST AND SOUTH CENTRAL LOUISIANA

CITY           SKY/WX    TMP DP  RH WIND       PRES   REMARKS
SULPHUR        CLOUDY    58  55  87 N9        30.05F
LAKE CHARLES   CLOUDY    58  55  90 N12       30.04F
CHENNAULT INT  CLOUDY    56  55  94 N7        30.05F
CAMERON PHI    PTCLDY    59  55  88 NE13      30.03S
DEQUINCY       CLOUDY    56  52  86 N5        30.07S
JENNINGS       CLOUDY    56  54  92 NE12      30.05S
LAFAYETTE      LGT RAIN  57  57 100 NE12      30.06R
NEW IBERIA     LGT RAIN  58  54  86 NE13      30.04F
ABBEVILLE      MOCLDY    57  57 100 N5        30.04R
PATTERSON      LGT RAIN  60  57  89 N9        30.04R
SALT POINT       N/A      1  52 100 VRB5      30.02R WCI  -9
$$

SELECTED SITES ACROSS THE REGION

CITY           SKY/WX    TMP DP  RH WIND       PRES   REMARKS
HOUSTON BUSH   MOCLDY    61  57  87 NE10      30.07S
HOUSTON HOBBY  CLOUDY    62  58  86 N16       30.06R
GALVESTON      CLOUDY    62  60  93 N16       30.04R
COLLEGE STAT   PTCLDY    60  57  89 N9        30.12R
CONROE         MOCLDY    60  57  89 N7        30.10R
HUNTSVILLE     CLOUDY    59  55  87 NE3       30.11S
LUFKIN         CLOUDY    56  54  93 N7        30.12R
SHREVEPORT     PTCLDY    51  51 100 CALM      30.14R
MONROE         CLOUDY    54  50  86 N3        30.13S
NATCHEZ MS     MOCLDY    52  52 100 NW5       30.11R FOG
BATON ROUGE    CLOUDY    56  53  90 N8        30.06R
N.O. INTL ARPT CLOUDY    63  57  81 N6        30.04R
SLIDELL        CLOUDY    59  53  80 N6        30.03S
$$

MARINE REPORTS

STATION/POSITION TIME  SKY/WX   TEMP    WIND        PRES    VSBY
                                AIR SEA DIR/SP/G
                 (UTC)          (F)     (DEG/KT/KT) (MB)    (MI)
BUOY 30 S HIGH I 0450            65 70   40/ 19/ 23 1015.6
WVE H/P(F/S)=  5/ 5

SEA RIM ST PARK  0600            59      20/ 10/ 12 1017.5R
PORT ARTHUR      0542            59 66   30/ 10/ 13 1017.1S
SABINE PASS N    0542            59 67   10/ 12/ 15 1018.5R
TEXAS POINT      NOT AVBL
CALCASIEU PASS   0542            58 65   50/ 10/ 15 1015.5R
LK CHARLES BEACH 0542            57 69              1017.0S
MARSH ISLAND     0500            62                   N/A
FRESH WATER LOCK 0542            59 64   30/  9/ 13 1016.2F
AMERADA PASS     0542            62 61   70/  7/ 11 1015.8F
$$




USA.gov is the U.S. government's official web portal to all federal, state and local government web resources and services.